AB9HP Weather Reports


Display with metric or nautical units.
time (UTC)temp
F
wind
direction
speed
MPH
gust
MPH
rain 1hr
in
rain 24hr
in
rain mn
in
humidity
%
barometer
mb
20260505234515 47 266 0.0 0.0 0.05 0.69 0.69 92 1009.2
20260505233025 47 256 0.0 0.0 0.07 0.68 0.68 91 1009.1
20260505231512 47 256 0.0 2.0 0.09 0.67 0.67 91 1009.0
20260505230011 47 264 0.0 1.0 0.10 0.66 0.66 91 1009.0
20260505224511 47 262 0.0 2.0 0.09 0.64 0.64 91 1009.2
20260505223015 47 253 0.0 1.0 0.06 0.61 0.61 91 1009.3
20260505221508 47 253 0.0 1.0 0.05 0.59 0.59 91 1009.3
20260505220008 47 240 0.0 3.0 0.06 0.56 0.56 92 1009.1
20260505214508 46 307 2.0 5.0 0.07 0.55 0.55 92 1009.2
20260505213101 46 7 1.0 10.0 0.07 0.55 0.55 91 1009.1
20260505211556 47 290 3.0 9.0 0.06 0.54 0.54 90 1009.0
20260505210054 48 300 0.0 6.0 0.05 0.52 0.52 91 1008.7
20260505204557 49 321 1.0 6.0 0.04 0.49 0.49 90 1008.5
20260505203049 49 293 0.0 4.0 0.04 0.48 0.48 90 1008.3
20260505201549 49 348 3.0 6.0 0.08 0.48 0.48 89 1008.1
20260505200045 49 1 0.0 5.0 0.10 0.47 0.47 90 1008.2
20260505194556 49 337 0.0 4.0 0.10 0.45 0.45 90 1008.4
20260505193044 49 295 0.0 0.0 0.12 0.44 0.44 89 1008.8
20260505191540 49 342 0.0 5.0 0.11 0.41 0.41 88 1008.8
20260505190037 50 335 0.0 3.0 0.08 0.37 0.37 88 1008.8
20260505184534 50 274 0.0 0.0 0.07 0.35 0.35 87 1008.9
20260505183043 50 317 0.0 0.0 0.07 0.33 0.33 86 1008.8
20260505181529 50 311 0.0 0.0 0.06 0.31 0.31 85 1008.7
20260505180027 51 261 0.0 1.0 0.05 0.28 0.28 85 1009.0
20260505174523 51 250 0.0 0.0 0.06 0.28 0.28 85 1008.5
20260505173017 52 227 0.0 0.0 0.05 0.26 0.26 84 1008.9
20260505171516 52 283 0.0 0.0 0.05 0.25 0.25 82 1008.2
20260505170012 53 242 0.0 0.0 0.04 0.24 0.24 80 1008.6
20260505164515 53 241 0.0 0.0 0.03 0.22 0.22 78 1008.5
20260505163011 53 255 0.0 0.0 0.02 0.21 0.21 78 1008.5
20260505161511 53 246 0.0 0.0 0.01 0.20 0.20 77 1008.5
20260505153005 54 269 1.0 9.0 0.00 0.19 0.19 75 1008.8
20260505151559 55 266 3.0 12.0 0.00 0.19 0.19 79 1008.7
20260505124544 58 221 5.0 14.0 0.00 0.19 0.19 84 1006.2
20260505123031 58 233 2.0 10.0 0.00 0.19 0.19 85 1005.6
20260505121534 57 236 0.0 8.0 0.00 0.19 0.19 86 1005.8
20260505120037 57 223 0.0 11.0 0.00 0.19 0.19 86 1006.2
20260505114527 56 163 0.0 9.0 0.00 0.19 0.19 87 1006.6
20260505113024 55 230 0.0 8.0 0.00 0.19 0.19 87 1006.3
20260505111520 55 208 0.0 4.0 0.00 0.19 0.19 87 1005.9
20260505101513 56 212 0.0 2.0 0.00 0.19 0.19 85 1005.0
20260505100012 56 213 0.0 3.0 0.00 0.19 0.19 85 1004.6
20260505094511 56 249 0.0 5.0 0.00 0.19 0.19 86 1004.5
20260505093007 57 236 0.0 5.0 0.00 0.19 0.19 85 1004.1
20260505091504 57 188 0.0 4.0 0.00 0.19 0.19 85 1004.1
20260505090004 57 258 0.0 6.0 0.00 0.19 0.19 86 1003.8
20260505084508 56 236 0.0 10.0 0.00 0.19 0.19 87 1003.7
20260505083104 56 108 3.0 9.0 0.00 0.19 0.19 89 1003.3
20260505081558 56 179 2.0 6.0 0.00 0.19 0.19 89 1004.3
20260505080111 56 193 2.0 9.0 0.02 0.19 0.19 89 1004.3
20260505073100 56 228 0.0 3.0 0.12 0.19 0.19 90 1004.2
20260505071550 56 148 2.0 10.0 0.15 0.19 0.19 90 1004.3
20260505070050 56 226 4.0 11.0 0.16 0.18 0.18 89 1004.2
20260505063044 57 251 4.0 10.0 0.08 0.08 0.08 88 1005.9
20260505061538 58 221 3.0 11.0 0.04 0.04 0.04 86 1005.7
20260505060037 59 340 3.0 16.0 0.03 0.03 0.03 83 1005.5
20260505053022 64 284 8.0 18.0 0.00 0.00 0.00 70 1004.6
20260505051518 65 280 4.0 16.0 0.00 0.00 0.00 67 1004.6
20260505041559 67 222 4.0 11.0 0.00 0.00 0.00 62 1002.4
20260505040055 67 206 5.0 14.0 0.00 0.00 0.00 63 1002.5
20260505033056 67 167 2.0 8.0 0.00 0.00 0.00 63 1002.9
20260505031554 68 254 3.0 9.0 0.00 0.00 0.00 62 1002.9
20260505030051 68 143 6.0 12.0 0.00 0.00 0.00 62 1003.1
20260505023048 68 201 3.0 9.0 0.00 0.00 0.00 61 1002.9
20260505021542 68 179 2.0 8.0 0.00 0.00 0.00 61 1003.1
20260505020039 68 207 2.0 8.0 0.00 0.00 0.00 62 1002.8
20260505013043 68 198 1.0 9.0 0.00 0.00 0.00 63 1002.6
20260505011600 69 211 3.0 10.0 0.00 0.00 0.00 63 1002.5
20260505010039 69 114 5.0 10.0 0.00 0.00 0.00 63 1002.6
20260505003029 69 199 3.0 14.0 0.00 0.00 0.00 63 1002.8
20260505001527 70 204 3.0 10.0 0.00 0.00 0.00 62 1002.6
20260505000031 71 194 4.0 14.0 0.00 0.00 0.00 60 1002.5